This is the latest recevied weather packets stored in our database for station/object K4AMF. If no packets are shown the sender has not sent any weather packets the latest 10 day(s).
| Time | Temp. | Humidity | Pressure | Rain* | Wind** | Luminosity | Snow |
|---|---|---|---|---|---|---|---|
| 1777777183 | 16.11° C | 93% | 1015.5 hPa | 0 mm | - | 0 W/m² | - |
| 1777776880 | 16.67° C | 92% | 1015.5 hPa | 0 mm | - | 0 W/m² | - |
| 1777776578 | 16.67° C | 92% | 1015.7 hPa | 0 mm | - | 0 W/m² | - |
| 1777776274 | 16.67° C | 92% | 1015.5 hPa | 0 mm | - | 0 W/m² | - |
| 1777775972 | 16.67° C | 92% | 1015.4 hPa | 0 mm | - | 0 W/m² | - |
| 1777775668 | 16.67° C | 92% | 1015.3 hPa | 0 mm | - | 0 W/m² | - |
| 1777775365 | 16.67° C | 92% | 1015.2 hPa | 0 mm | - | 0 W/m² | - |
| 1777775060 | 16.67° C | 92% | 1015.4 hPa | 0 mm | - | 0 W/m² | - |
| 1777774452 | 16.67° C | 93% | 1015.2 hPa | 0 mm | - | 0 W/m² | - |
| 1777774150 | 16.67° C | 93% | 1015.3 hPa | 0 mm | - | 0 W/m² | - |
| 1777770514 | 17.22° C | 92% | 1014.5 hPa | 0 mm | - | 0 W/m² | - |
| 1777768696 | 17.22° C | 91% | 1014.4 hPa | 0 mm | - | 0 W/m² | - |
| 1777767781 | 17.22° C | 91% | 1013.8 hPa | 0 mm | - | 0 W/m² | - |
| 1777767477 | 17.22° C | 92% | 1013.6 hPa | 0 mm | - | 0 W/m² | - |
| 1777767174 | 17.22° C | 92% | 1013.5 hPa | 0 mm | - | 0 W/m² | - |
| 1777766871 | 17.22° C | 92% | 1013.3 hPa | 0 mm | - | 0 W/m² | - |
| 1777766563 | 17.22° C | 93% | 1013.5 hPa | 0 mm | - | 0 W/m² | - |
| 1777766260 | 17.22° C | 93% | 1013.3 hPa | 0 mm | - | 0 W/m² | - |
| 1777765958 | 17.22° C | 93% | 1013.2 hPa | 0 mm | - | 1 W/m² | - |
| 1777765351 | 17.22° C | 92% | 1012.6 hPa | 0 mm | - | 7 W/m² | - |
| 1777765047 | 17.22° C | 92% | 1012.7 hPa | 0 mm | - | 6 W/m² | - |
| 1777764439 | 17.78° C | 92% | 1012.9 hPa | 0 mm | - | 6 W/m² | - |
| 1777764136 | 17.78° C | 91% | 1012.5 hPa | 0 mm | - | 5 W/m² | - |
| 1777763833 | 17.78° C | 91% | 1012.5 hPa | 0 mm | - | 7 W/m² | - |
| 1777763531 | 17.78° C | 91% | 1012.4 hPa | 0 mm | - | 10 W/m² | - |
* Rain latest hour (hover to see other rain measurements)
** Current wind speed in m/s (hover to see current wind gust speed)